Temp
54 48 45 48 50 51 51 47 46 47 52 50 49 49 53 56 55 57 55 56 57 59 59 60 63 62 63 64 65 66 66 66 66 63 64 64 64 64 64 65 66 66 67 67
49 45 53 55 55 54 49 46 42 46 50 49 48 50 52 54 55 57 57 56 58 55 56 57 58 57 59 60 60 63 65 66 66 65 64 65 65 64 65 66 65 65 65 65
46 50 56 54 51 50 50 46 43 46 47 47 45 44 49 54 54 54 54 56 56 55 55 55 56 53 54 55 55 59 63 64 66 66 67 63 63 63 63 64 64 64 64 64
48 54 53 51 49 52 46 53 49 46 45 39 45 35 43 48 50 51 53 52 54 55 55 54 54 50 50 53 53 55 58 62 63 65 66 64 62 61 63 64 64 64 64 63
45 48 49 47 51 54 48 51 49 46 44 39 38 36 41 45 46 50 51 52 52 53 53 52 51 53 50 52 52 52 55 58 60 62 66 65 62 62 62 62 63 63 63 63
47 51 52 52 50 54 53 49 47 44 41 32 37 37 38 42 48 48 48 50 50 49 50 50 51 52 50 50 51 50 52 54 57 59 63 64 63 61 60 59 59 58 59 58
43 43 47 51 48 49 49 43 31 30 29 29 31 33 42 47 51 51 50 48 48 48 47 48 48 47 48 49 49 52 52 52 54 56 56 57 57 58 57 56 55 54 53 52
36 35 45 49 48 44 42 43 30 23 24 29 33 32 42 47 51 51 52 49 48 47 48 47 47 47 47 48 48 49 49 49 51 52 52 54 56 54 52 51 49 47 47 47
38 38 45 47 48 52 42 39 45 33 18 26 32 37 46 45 46 47 47 48 46 47 46 46 47 46 46 46 47 47 48 48 49 49 50 50 49 48 46 46 46 45 45 48
46 35 41 44 47 47 45 50 38 35 24 21 29 30 37 40 44 45 45 46 45 46 46 46 46 46 46 46 46 47 47 46 46 47 48 47 47 46 45 45 43 43 43 43
45 41 36 42 41 41 42 41 42 42 34 24 22 32 43 46 48 46 47 48 47 46 47 46 46 46 46 45 44 45 45 45 45 46 45 45 44 44 43 42 41 41 41 41
45 39 31 37 41 43 43 44 43 35 33 31 30 34 46 47 47 49 47 49 47 48 46 45 45 45 44 44 44 43 44 45 44 44 44 43 43 42 41 40 39 39 39 39
46 36 26 33 40 41 41 43 46 43 34 29 26 34 46 45 45 48 47 46 48 47 44 45 45 45 44 44 44 44 44 43 43 43 42 41 39 39 38 38 38 38 37 37
50 40 37 34 37 40 36 40 42 43 30 32 33 42 44 44 45 46 47 48 48 47 47 46 45 45 45 45 43 42 42 42 42 41 39 38 37 37 36 36 36 35 36 35
47 33 37 39 43 42 41 42 41 41 47 39 46 43 46 47 47 49 51 49 48 47 47 47 46 46 45 43 42 42 42 42 40 39 37 36 36 35 34 33 34 33 33 33
43 32 37 32 41 42 38 41 44 46 46 45 47 45 52 51 50 48 50 49 48 49 48 48 47 46 44 44 42 42 40 40 39 36 34 34 33 32 32 32 32 32 32 31
39 34 30 32 32 34 31 37 41 44 48 48 42 50 48 48 50 50 50 50 50 50 50 48 47 46 45 43 43 41 39 37 34 33 32 32 32 32 31 31 31 31 31 30
31 33 28 25 28 23 39 46 48 45 48 50 51 50 48 49 49 49 53 51 51 51 50 49 48 46 45 43 41 39 37 34 33 32 31 31 31 31 31 30 29 29 29 29
39 33 27 26 16 30 38 38 39 39 44 47 49 52 48 47 45 46 53 55 53 51 51 50 49 46 44 41 39 36 34 34 33 32 31 31 30 28 27 24 25 27 26 24
36 39 32 16 17 19 37 41 44 47 37 51 49 50 44 44 43 53 50 52 52 51 50 47 45 43 41 38 36 35 33 33 32 32 31 30 29 26 23 25 24 24 22 26
31 30 32 29 22 27 34 37 42 32 38 37 42 48 46 45 54 48 47 46 47 47 44 44 43 41 40 36 36 34 33 32 31 29 28 27 27 24 24 22 23 20 17 20
33 32 31 31 29 27 37 36 40 41 35 36 37 41 41 41 40 40 42 41 41 40 40 41 39 37 36 36 36 33 33 30 28 27 26 24 20 22 22 14 13 12 11 13
31 37 32 36 34 36 35 34 37 39 38 36 36 39 39 39 37 37 37 37 38 39 37 38 36 33 33 32 35 33 29 27 25 24 21 17 16 17 16 10 11 13 10 11
32 36 32 33 33 36 37 36 36 38 37 37 36 37 38 38 37 35 34 34 34 33 34 33 33 32 30 30 30 31 27 25 23 19 20 19 15 12 11 16 17 9 8 9
32 34 32 31 35 36 38 39 40 37 36 36 36 35 38 36 34 34 32 32 32 31 31 33 33 31 28 27 26 25 23 23 21 19 18 14 12 8 10 13 11 14 14 14
31 32 31 30 37 39 39 39 39 38 37 37 37 34 33 34 33 32 31 31 31 31 31 31 30 28 25 24 20 19 19 20 18 16 14 11 10 9 11 10 10 21 25 28
MSLP
1013.89 1014.48 1014.24 1014.51 1015.20 1015.24 1015.52 1015.76 1016.18 1016.35 1016.07 1016.35 1016.46 1016.64 1016.53 1016.39 1016.90 1016.83 1017.21 1017.27 1017.70 1017.70 1017.61 1017.77 1017.93 1018.20 1018.27 1018.64 1018.94 1019.24 1019.79 1020.31 1020.87 1021.63 1022.19 1022.64 1022.86 1023.27 1023.51 1023.67 1023.77 1023.91 1024.06 1024.30
1014.12 1013.81 1014.18 1014.21 1014.82 1015.14 1015.49 1015.80 1016.37 1016.81 1016.55 1016.65 1016.88 1016.89 1016.59 1016.71 1016.72 1016.48 1016.83 1017.23 1017.49 1017.99 1018.10 1018.26 1018.22 1018.47 1018.71 1019.01 1019.27 1019.43 1019.61 1019.89 1020.42 1020.83 1021.48 1022.06 1022.39 1022.79 1022.90 1023.27 1023.56 1023.76 1023.86 1023.94
1013.54 1013.88 1013.91 1014.23 1014.67 1015.12 1015.42 1015.56 1016.32 1016.55 1017.06 1017.14 1017.27 1017.48 1016.96 1016.46 1016.49 1016.61 1016.63 1017.08 1017.52 1018.01 1018.31 1018.64 1018.86 1019.13 1019.12 1019.45 1019.52 1019.56 1019.59 1019.85 1020.02 1020.52 1021.03 1021.82 1022.40 1022.65 1022.86 1023.05 1023.25 1023.46 1023.70 1023.87
1013.86 1013.52 1013.54 1013.98 1014.26 1014.68 1015.20 1014.89 1015.71 1016.47 1017.34 1017.74 1017.55 1017.70 1016.80 1016.41 1016.57 1016.86 1017.00 1017.20 1017.85 1018.09 1018.47 1018.83 1019.15 1019.51 1019.63 1019.68 1019.74 1019.72 1019.70 1019.42 1019.59 1020.12 1020.57 1021.43 1022.07 1022.43 1022.65 1022.86 1023.01 1023.04 1023.30 1023.56
1013.60 1013.57 1013.45 1013.72 1013.63 1014.12 1014.89 1014.92 1015.75 1016.82 1017.70 1018.04 1018.30 1018.45 1016.55 1016.47 1017.03 1016.99 1016.99 1017.29 1018.10 1018.49 1018.84 1019.32 1019.71 1019.81 1019.95 1019.89 1019.86 1019.78 1019.77 1019.77 1019.41 1019.96 1020.05 1020.99 1021.85 1022.39 1022.55 1022.91 1023.18 1023.23 1023.30 1023.60
1013.68 1013.69 1013.39 1013.32 1013.68 1013.92 1014.79 1015.45 1016.58 1017.65 1018.80 1019.31 1018.51 1018.43 1016.99 1016.53 1015.96 1016.25 1016.89 1017.43 1018.11 1018.60 1019.20 1019.72 1020.11 1020.21 1020.35 1020.25 1020.08 1019.77 1020.06 1020.44 1019.98 1019.99 1020.35 1020.92 1021.72 1022.50 1022.95 1023.18 1023.69 1023.88 1024.17 1024.48
1013.96 1014.28 1013.86 1013.51 1014.03 1014.64 1014.63 1016.13 1018.11 1019.41 1020.05 1019.60 1019.08 1018.76 1016.80 1015.72 1015.30 1015.32 1016.27 1017.68 1018.41 1018.76 1019.38 1020.04 1020.45 1020.65 1020.70 1020.69 1020.61 1020.44 1020.11 1020.92 1020.72 1020.60 1020.86 1021.39 1022.03 1022.78 1023.28 1023.69 1024.24 1024.83 1024.95 1025.34
1013.82 1014.59 1014.12 1013.56 1013.47 1014.02 1015.05 1015.57 1017.18 1018.97 1020.36 1020.16 1019.52 1018.18 1016.09 1015.49 1015.21 1015.21 1016.05 1017.28 1018.38 1019.01 1019.45 1020.11 1020.75 1020.84 1020.90 1021.05 1020.88 1021.01 1021.10 1021.31 1021.48 1021.41 1021.95 1022.21 1022.85 1023.66 1024.07 1024.43 1024.88 1025.51 1025.89 1026.22
1012.77 1013.97 1013.96 1013.96 1013.52 1013.45 1014.79 1015.44 1016.29 1018.49 1020.65 1020.39 1019.05 1017.47 1015.93 1015.60 1015.71 1015.99 1016.69 1017.62 1018.47 1019.30 1019.79 1020.28 1020.81 1021.22 1021.43 1021.55 1021.46 1021.33 1021.62 1021.78 1021.98 1022.20 1022.53 1023.22 1023.91 1024.39 1024.92 1025.16 1025.69 1026.16 1026.39 1026.46
1011.81 1013.90 1014.36 1014.49 1013.85 1013.98 1013.81 1014.61 1016.17 1017.52 1019.59 1020.25 1018.57 1017.66 1015.94 1015.88 1015.74 1016.28 1016.94 1017.62 1018.49 1019.21 1019.96 1020.58 1021.06 1021.20 1021.63 1021.97 1021.81 1021.69 1021.90 1022.55 1022.85 1023.06 1023.36 1024.06 1024.80 1025.18 1025.59 1025.93 1026.16 1026.62 1026.90 1026.95
1011.38 1012.55 1015.01 1014.94 1014.31 1013.91 1014.51 1014.43 1015.26 1016.39 1017.68 1018.05 1017.93 1016.37 1014.35 1014.02 1014.49 1015.36 1016.31 1017.15 1018.08 1018.85 1019.67 1020.46 1021.13 1021.55 1021.94 1022.25 1022.30 1022.30 1022.56 1022.87 1023.71 1023.97 1024.36 1024.78 1025.34 1025.75 1026.16 1026.44 1026.84 1026.85 1027.09 1027.31
1011.49 1013.00 1014.85 1014.86 1014.44 1014.16 1014.06 1013.88 1014.52 1015.65 1016.79 1017.13 1016.83 1014.95 1013.63 1013.71 1013.89 1014.53 1015.68 1016.76 1017.78 1018.66 1019.52 1020.51 1020.98 1021.70 1022.15 1022.46 1022.52 1022.97 1023.32 1023.47 1024.02 1024.38 1024.91 1025.45 1025.77 1026.27 1026.49 1026.87 1027.11 1027.33 1027.31 1027.48
1010.95 1012.57 1014.70 1015.31 1015.09 1014.37 1013.95 1013.86 1013.87 1014.39 1015.43 1016.20 1016.41 1014.27 1013.35 1013.31 1013.57 1014.17 1015.10 1016.36 1017.37 1018.40 1019.47 1020.44 1021.19 1021.81 1022.39 1022.78 1023.05 1023.13 1023.44 1023.94 1024.26 1024.79 1025.29 1025.90 1026.21 1026.65 1026.97 1027.20 1027.53 1027.67 1027.77 1027.91
1010.17 1011.82 1012.40 1012.83 1012.52 1012.95 1013.73 1013.28 1013.50 1013.94 1015.07 1014.76 1014.29 1013.14 1012.95 1013.22 1013.51 1014.19 1014.89 1015.71 1016.72 1017.88 1018.77 1019.78 1020.58 1021.31 1021.99 1022.47 1022.98 1023.36 1023.86 1024.22 1024.41 1025.04 1025.60 1026.02 1026.48 1026.92 1027.06 1027.35 1027.79 1027.99 1028.06 1028.08
1010.54 1011.88 1012.51 1012.47 1012.41 1012.26 1011.90 1012.28 1012.93 1013.49 1012.92 1013.58 1011.95 1011.86 1012.16 1012.42 1012.74 1013.26 1014.05 1015.40 1016.40 1017.40 1018.30 1019.02 1019.75 1020.71 1021.52 1022.25 1022.97 1023.23 1023.70 1024.25 1024.70 1025.42 1025.90 1026.21 1026.80 1027.23 1027.42 1027.63 1028.07 1028.35 1028.30 1028.07
1010.86 1011.62 1012.38 1013.06 1013.08 1012.54 1012.19 1011.99 1012.00 1012.02 1011.56 1012.07 1011.02 1010.76 1010.88 1011.31 1012.39 1013.44 1013.76 1014.65 1015.44 1016.34 1017.24 1018.07 1019.05 1019.78 1020.77 1021.72 1022.46 1023.06 1023.75 1024.29 1024.68 1025.43 1026.20 1026.65 1026.85 1027.20 1027.41 1027.63 1027.96 1028.30 1028.41 1028.37
1011.74 1012.55 1013.49 1014.17 1013.91 1013.66 1013.16 1011.16 1011.21 1011.12 1010.67 1010.34 1010.55 1008.82 1010.71 1010.98 1011.47 1011.97 1012.89 1013.55 1013.98 1014.70 1015.72 1016.78 1017.65 1018.92 1020.03 1020.79 1021.55 1022.64 1023.52 1024.35 1025.14 1025.75 1026.45 1026.70 1026.75 1027.17 1027.32 1027.66 1028.11 1028.30 1028.51 1028.58
1011.88 1013.01 1013.94 1015.12 1014.98 1014.18 1010.49 1009.89 1009.94 1010.06 1009.64 1009.76 1009.09 1008.97 1009.77 1010.29 1010.62 1011.00 1011.36 1011.72 1012.66 1013.74 1014.83 1015.83 1016.73 1018.04 1019.24 1020.32 1021.54 1022.51 1023.56 1024.54 1025.28 1025.85 1026.23 1026.36 1026.61 1027.20 1027.69 1028.15 1028.44 1028.46 1028.60 1028.59
1011.60 1012.76 1014.43 1015.20 1015.37 1013.24 1010.59 1010.01 1009.52 1009.81 1008.79 1009.45 1009.09 1008.66 1009.59 1010.19 1010.91 1010.68 1010.38 1010.74 1011.46 1012.03 1012.59 1013.83 1015.38 1016.91 1018.59 1020.01 1021.26 1022.37 1023.60 1024.47 1025.11 1025.54 1025.83 1026.25 1026.56 1027.25 1027.86 1028.33 1028.58 1028.64 1028.54 1028.44
1012.25 1012.14 1013.28 1014.72 1014.68 1012.88 1008.94 1009.12 1009.04 1009.84 1009.11 1007.88 1008.79 1008.54 1009.38 1010.25 1010.79 1008.20 1009.48 1009.92 1010.50 1011.54 1012.63 1013.94 1015.43 1016.76 1018.29 1019.83 1020.94 1022.22 1023.48 1024.33 1024.87 1025.21 1025.73 1026.05 1026.59 1027.23 1027.94 1028.50 1028.75 1028.60 1028.59 1028.49
1012.90 1012.91 1012.91 1013.49 1013.59 1011.32 1009.72 1009.18 1009.24 1010.19 1008.06 1007.82 1008.20 1007.94 1008.72 1009.30 1008.11 1008.34 1008.69 1009.81 1010.55 1011.36 1012.63 1014.13 1015.28 1016.20 1017.72 1019.50 1020.89 1022.14 1023.12 1023.77 1024.33 1024.94 1025.56 1026.28 1026.83 1027.42 1028.19 1028.49 1028.49 1028.50 1028.43 1028.44
1010.91 1011.63 1012.27 1012.93 1012.90 1011.14 1009.20 1010.06 1009.57 1008.97 1008.63 1008.67 1008.93 1008.92 1008.99 1009.03 1009.20 1009.51 1009.71 1010.28 1011.03 1012.05 1013.40 1014.48 1015.76 1017.23 1018.51 1019.60 1020.58 1021.92 1023.05 1023.86 1024.55 1025.18 1025.87 1026.53 1027.09 1027.89 1028.25 1028.31 1028.51 1028.55 1028.32 1028.30
1011.10 1010.15 1010.64 1010.77 1009.85 1009.58 1009.57 1009.35 1009.11 1009.31 1009.43 1009.64 1009.79 1009.78 1009.80 1010.08 1010.38 1010.77 1011.27 1011.68 1012.25 1012.96 1013.96 1014.89 1015.91 1017.51 1018.97 1019.96 1020.81 1021.91 1023.08 1023.85 1024.62 1025.44 1026.20 1027.01 1027.70 1028.03 1028.12 1028.23 1028.49 1028.56 1028.25 1028.47
1010.99 1010.52 1010.41 1010.37 1010.10 1009.76 1009.64 1009.61 1009.85 1009.77 1010.08 1010.46 1010.61 1010.63 1010.65 1010.76 1011.12 1011.67 1012.28 1012.96 1013.57 1014.12 1014.66 1015.38 1016.40 1017.76 1019.27 1020.25 1021.11 1021.91 1023.08 1023.83 1024.63 1025.29 1026.46 1027.31 1027.71 1028.08 1028.18 1028.12 1028.06 1028.29 1028.47 1028.18
1011.04 1010.84 1010.64 1010.56 1010.20 1010.22 1009.79 1009.79 1009.95 1010.50 1010.60 1010.76 1010.83 1010.98 1011.06 1011.40 1011.96 1012.32 1012.92 1013.55 1014.21 1014.72 1015.38 1015.97 1016.73 1018.10 1019.59 1020.59 1021.52 1022.52 1023.48 1024.01 1024.61 1025.74 1026.56 1027.14 1027.77 1028.12 1028.05 1028.00 1027.95 1027.71 1027.62 1027.28
1010.91 1010.41 1010.47 1010.02 1009.82 1010.02 1010.24 1010.15 1010.10 1010.45 1010.77 1011.09 1011.46 1011.63 1011.72 1012.01 1012.39 1012.93 1013.56 1014.05 1014.57 1015.29 1015.97 1016.78 1017.66 1018.70 1020.15 1021.25 1022.42 1023.30 1023.98 1024.17 1024.96 1026.06 1026.84 1027.57 1027.86 1027.82 1027.86 1028.23 1028.01 1027.34 1026.66 1026.43
Wind_Speed
5 5 11 9 7 5 5 5 7 1 4 5 8 5 7 8 5 7 6 9 9 9 4 5 6 6 6 5 5 8 12 12 10 5 6 4 5 3 3 3 5 5 4 5
4 13 9 9 9 9 5 6 4 2 1 3 6 10 6 7 7 8 9 8 8 6 6 4 5 5 3 1 1 1 7 13 11 8 5 3 3 3 3 4 4 5 5 6
9 6 7 7 7 8 6 6 6 7 4 1 4 6 6 7 5 4 4 6 6 10 9 6 5 4 4 3 2 1 2 7 10 10 6 4 3 2 3 3 3 4 5 5
5 4 12 7 8 9 7 5 7 12 6 5 5 6 6 7 7 7 7 7 7 7 6 6 6 4 3 1 3 3 2 4 8 11 9 11 4 3 3 3 3 3 5 5
6 7 7 6 8 6 5 7 9 5 4 6 3 3 8 7 6 9 9 8 8 8 8 8 7 6 3 2 1 1 3 3 6 6 9 8 5 4 3 3 3 1 1 2
2 3 4 7 3 6 9 8 9 5 3 1 5 6 6 6 10 6 5 7 9 9 8 7 6 6 3 3 3 5 7 4 6 7 7 8 8 6 4 4 4 4 5 6
2 1 1 3 8 5 6 5 3 3 1 7 2 2 9 6 8 8 12 10 9 9 9 8 8 6 5 5 5 5 8 7 7 10 9 8 9 8 7 6 5 6 4 5
8 5 7 3 8 10 7 7 8 7 5 5 2 8 8 3 6 5 10 10 8 8 7 8 7 6 6 6 7 8 8 8 8 11 10 10 12 6 7 8 6 5 5 4
7 2 2 3 1 10 6 5 6 8 3 4 5 6 7 2 2 6 10 10 9 8 8 9 8 7 6 7 7 8 9 9 10 11 11 11 9 9 8 8 7 5 5 5
6 6 2 2 1 3 6 8 4 3 6 5 4 5 6 6 10 7 10 11 9 8 8 8 7 7 6 6 6 8 9 9 9 10 10 9 9 9 8 7 8 7 6 6
3 6 1 2 5 8 3 4 3 6 6 7 2 8 9 14 17 18 14 14 13 11 11 9 7 7 7 6 6 7 8 10 9 9 9 10 9 8 7 8 6 6 6 6
2 6 5 5 2 2 0 6 5 6 6 1 4 8 3 6 11 16 15 13 10 12 11 9 9 8 8 7 7 7 7 10 8 9 9 9 8 7 8 7 7 6 6 5
9 2 5 5 3 1 6 5 6 5 4 7 7 8 2 4 7 10 16 11 13 12 10 9 9 9 8 7 7 8 8 9 8 9 9 8 7 7 7 7 6 6 6 6
10 3 8 12 7 8 8 7 6 6 4 4 8 10 5 5 9 9 11 13 15 15 15 13 10 10 10 9 9 9 8 8 9 9 8 9 7 6 6 6 6 5 4 4
7 7 5 1 4 4 6 15 12 9 19 8 23 12 8 9 11 16 13 12 15 16 15 15 14 12 12 11 9 8 8 9 8 9 8 8 7 6 6 6 5 4 5 5
1 4 6 3 6 5 4 8 16 20 21 13 17 16 9 7 7 9 16 18 18 19 17 16 16 16 14 14 12 10 9 9 8 8 8 6 7 6 6 6 6 5 5 5
8 6 5 11 1 6 3 16 14 12 17 20 19 27 5 8 14 17 15 18 22 22 20 20 19 17 15 15 14 13 11 9 8 8 7 6 6 6 6 6 5 4 3 3
8 7 3 4 3 4 14 6 17 17 14 19 18 11 8 8 10 10 16 22 21 17 18 19 18 17 15 13 12 11 10 9 9 8 7 6 6 6 5 5 2 1 1 2
2 6 4 7 4 6 11 8 10 11 20 10 20 21 7 3 4 8 18 18 22 24 23 19 17 17 14 15 13 13 11 10 9 8 7 6 6 6 4 2 1 3 2 1
3 1 5 3 7 12 7 9 9 8 17 14 16 20 11 9 10 19 14 18 17 13 14 17 17 17 17 14 14 14 12 10 9 8 7 6 6 5 4 2 3 2 1 3
4 1 14 8 5 11 6 5 4 10 13 2 7 15 10 13 19 3 8 8 10 12 16 17 19 19 17 15 15 13 12 10 8 7 7 6 5 4 2 3 1 1 2 2
13 12 8 6 7 20 6 3 20 5 1 2 1 3 5 4 1 2 5 10 15 17 18 18 16 13 13 14 14 12 11 8 8 7 6 5 4 2 2 2 1 2 2 4
6 5 7 11 8 1 3 1 3 2 2 3 3 4 2 5 3 3 5 8 11 16 14 13 16 15 11 8 11 13 10 10 9 7 6 4 3 2 2 2 2 2 3 2
1 1 3 3 2 4 4 1 1 2 2 2 2 3 4 4 6 5 6 8 9 10 12 12 17 16 12 8 7 9 11 9 9 8 6 5 4 2 1 1 0 0 2 2
3 6 3 3 3 3 6 6 4 3 2 2 3 2 5 6 6 6 6 7 9 10 9 13 15 14 12 9 9 8 8 9 8 6 5 4 3 3 2 0 2 2 4 4
5 7 5 5 4 4 1 3 3 4 3 5 5 3 2 4 7 5 7 7 10 12 12 12 12 13 11 10 9 8 6 7 8 6 4 3 3 2 2 1 2 6 6 6
Wind_Direction
195 144 198 174 160 192 165 189 169 237 193 131 195 172 207 206 211 197 191 164 182 190 171 122 101 102 100 106 176 175 160 170 162 152 158 178 183 177 188 191 203 208 206 208
139 215 190 160 176 218 180 206 152 18 20 116 176 236 223 193 217 196 181 194 185 152 139 95 94 68 52 88 58 192 184 167 170 161 168 155 153 168 173 190 196 203 205 216
164 195 179 164 180 197 192 176 182 163 161 55 118 299 205 237 197 172 168 139 151 172 160 146 122 85 41 4 5 4 199 176 172 162 158 104 96 95 143 177 186 211 209 230
178 216 173 163 182 157 204 182 149 138 124 200 150 258 240 208 188 194 190 170 174 145 147 146 129 105 119 305 300 261 259 169 163 166 155 153 164 160 184 178 188 206 206 230
204 170 142 171 183 158 195 139 142 135 114 109 212 119 264 132 198 217 210 196 196 181 144 138 140 136 114 71 258 233 146 110 140 147 152 151 137 144 121 100 129 152 112 16
134 264 144 173 79 141 145 88 47 62 80 280 228 159 267 190 200 204 190 189 166 149 136 129 125 118 92 45 66 108 98 77 85 107 130 129 136 145 127 105 93 77 73 52
85 341 266 162 83 11 109 111 55 26 359 224 359 195 250 236 223 198 180 172 167 145 139 135 135 132 105 86 76 85 98 78 87 93 88 102 89 78 92 90 83 77 63 43
154 207 185 200 166 171 167 152 146 172 189 218 341 226 243 237 301 176 159 156 152 152 144 138 141 132 122 104 90 84 80 84 72 78 73 78 82 83 74 77 79 69 66 59
144 195 357 53 42 147 207 181 159 102 21 70 218 285 305 266 99 148 152 153 155 148 146 140 135 124 115 107 98 97 93 87 83 88 88 79 86 90 94 82 80 79 67 64
185 114 10 308 97 11 164 153 99 7 137 231 268 269 235 233 210 181 167 163 159 152 143 141 142 130 117 115 111 95 92 93 94 90 92 93 91 88 84 82 82 76 69 61
134 102 289 151 208 166 149 182 169 129 152 166 152 256 216 207 192 187 181 174 168 160 153 148 141 134 129 116 103 100 98 103 95 95 96 97 96 93 88 86 76 78 72 55
145 113 138 214 229 249 2 203 153 155 223 239 146 266 193 217 195 176 178 173 161 159 153 151 146 142 137 128 118 113 109 110 113 110 103 101 96 91 88 80 73 61 68 56
178 134 91 12 345 295 206 200 204 110 79 198 145 255 265 278 160 175 168 167 163 154 144 143 145 150 145 135 133 130 126 125 118 111 110 101 95 92 84 76 66 57 54 50
114 131 168 189 191 140 188 192 197 162 124 190 225 244 241 199 177 175 173 167 163 161 162 165 161 157 155 150 147 139 132 132 124 114 112 106 99 98 91 85 71 66 61 64
123 178 175 274 145 151 166 185 175 192 225 179 239 233 226 209 192 191 174 161 164 172 175 173 167 165 162 155 152 144 138 134 127 120 112 109 107 99 95 88 81 63 48 45
73 231 137 259 208 218 195 205 192 204 225 231 252 272 186 189 153 158 176 174 181 184 184 177 173 171 167 163 158 151 146 139 129 122 118 123 121 116 102 85 68 54 36 29
145 133 111 234 111 95 312 210 197 207 217 215 232 240 133 198 194 188 182 185 189 191 185 182 179 174 169 165 160 158 148 134 125 126 134 134 121 106 86 77 70 56 27 9
145 124 93 154 71 191 246 171 200 208 220 221 244 247 186 193 208 189 196 191 196 189 186 184 176 171 166 158 151 138 137 137 138 141 139 130 112 101 94 86 83 36 232 319
103 130 150 150 192 293 269 216 162 169 244 205 225 242 199 189 103 258 209 197 194 192 192 185 173 160 152 152 147 142 141 145 147 150 138 135 126 120 114 94 257 251 223 257
33 97 143 108 158 205 293 174 143 97 269 215 214 238 199 147 216 239 197 203 201 189 173 164 160 149 148 152 144 144 152 153 153 153 148 134 130 125 124 202 244 226 247 259
160 153 202 207 232 276 223 146 152 151 251 175 210 232 200 199 224 277 163 170 168 160 153 152 156 157 152 146 148 152 153 162 152 134 125 118 113 120 181 211 238 283 301 299
180 176 192 203 215 258 143 22 172 227 46 89 309 308 214 195 35 88 137 142 146 144 148 154 147 145 145 148 147 147 155 137 130 125 119 117 108 167 163 126 308 309 352 0
199 195 176 195 216 303 256 90 134 119 74 29 335 331 160 152 162 109 114 125 140 146 146 146 141 135 136 140 152 148 148 141 133 130 116 117 155 195 171 125 329 351 20 13
222 7 145 94 248 263 204 64 214 149 153 268 247 287 202 182 160 134 124 131 131 138 141 140 139 141 142 140 124 136 144 138 139 120 138 155 145 142 120 113 156 58 304 298
194 144 151 303 246 315 279 237 214 181 170 256 312 257 237 174 173 154 143 143 143 140 137 146 145 143 141 131 124 131 138 142 123 134 149 139 141 150 114 66 218 223 247 202
187 170 166 213 190 139 170 327 216 220 207 203 197 216 193 192 167 141 151 153 150 151 149 143 140 136 142 135 134 131 148 134 140 138 135 160 158 122 108 99 309 324 310 325